Hourly Weather Rudovka

Today, 15 April, Thursday

Time Temperature Precipitation Wind Pressure Humidity
00:00 +10°C° 0 mm 3 mps 747 mmHg 62%
01:00 +10°C° 0 mm 3 mps 747 mmHg 63%
02:00 +9°C° 0 mm 3 mps 747 mmHg 65%
03:00 +9°C° 0 mm 3 mps 747 mmHg 65%
04:00 +9°C° 0 mm 3 mps 746 mmHg 66%
05:00 +8°C° 0 mm 3 mps 746 mmHg 67%
06:00 +8°C° 0 mm 3 mps 746 mmHg 69%
07:00 +10°C° 0 mm 3 mps 746 mmHg 62%
08:00 +12°C° 0 mm 4 mps 746 mmHg 56%
09:00 +14°C° 0 mm 4 mps 746 mmHg 50%
10:00 +17°C° 0 mm 4 mps 746 mmHg 45%
11:00 +19°C° 0 mm 5 mps 746 mmHg 40%
12:00 +21°C° 0 mm 5 mps 745 mmHg 35%
13:00 +21°C° 0 mm 5 mps 745 mmHg 33%
14:00 +22°C° 0 mm 5 mps 745 mmHg 31%
15:00 +22°C° 0 mm 5 mps 745 mmHg 30%
16:00 +21°C° 0 mm 4 mps 745 mmHg 34%
17:00 +20°C° 0 mm 4 mps 745 mmHg 38%
18:00 +19°C° 0 mm 3 mps 745 mmHg 41%
19:00 +18°C° 0 mm 3 mps 745 mmHg 46%
20:00 +17°C° 0 mm 3 mps 745 mmHg 51%
21:00 +14°C° 0 mm 3 mps 745 mmHg 56%
22:00 +15°C° 0 mm 2 mps 745 mmHg 60%
23:00 +14°C° 0 mm 2 mps 745 mmHg 63%

Tomorrow, 16 April, Friday

Time Temperature Precipitation Wind Pressure Humidity
00:00 +13°C° 0 mm 1 mps 745 mmHg 67%
01:00 +13°C° 0.1 mm 1 mps 745 mmHg 69%
02:00 +12°C° 0.1 mm 1 mps 745 mmHg 71%
03:00 +12°C° 0.1 mm 1 mps 745 mmHg 73%
04:00 +12°C° 0 mm 2 mps 745 mmHg 72%
05:00 +12°C° 0 mm 2 mps 746 mmHg 71%
06:00 +10°C° 0 mm 2 mps 746 mmHg 70%
07:00 +12°C° 0 mm 3 mps 746 mmHg 64%
08:00 +13°C° 0 mm 3 mps 746 mmHg 58%
09:00 +14°C° 0 mm 3 mps 746 mmHg 53%
10:00 +16°C° 0 mm 3 mps 747 mmHg 48%
11:00 +18°C° 0 mm 3 mps 747 mmHg 44%
12:00 +19°C° 0 mm 3 mps 747 mmHg 40%
13:00 +19°C° 0 mm 3 mps 747 mmHg 38%
14:00 +20°C° 0 mm 4 mps 747 mmHg 36%
15:00 +20°C° 0 mm 4 mps 747 mmHg 33%
16:00 +19°C° 0 mm 4 mps 747 mmHg 36%
17:00 +19°C° 0 mm 4 mps 747 mmHg 39%
18:00 +18°C° 0 mm 3 mps 747 mmHg 42%
19:00 +17°C° 0 mm 4 mps 747 mmHg 48%
20:00 +14°C° 0 mm 4 mps 747 mmHg 54%
21:00 +13°C° 0 mm 5 mps 747 mmHg 60%
22:00 +12°C° 0 mm 5 mps 747 mmHg 66%
23:00 +12°C° 0 mm 5 mps 747 mmHg 73%

Day after tomorrow, 17 April, Saturday

Time Temperature Precipitation Wind Pressure Humidity
00:00 +10°C° 0 mm 5 mps 748 mmHg 80%
01:00 +9°C° 0 mm 5 mps 748 mmHg 82%
02:00 +9°C° 0 mm 5 mps 748 mmHg 85%
03:00 +8°C° 0 mm 4 mps 748 mmHg 87%
04:00 +8°C° 0 mm 5 mps 748 mmHg 87%
05:00 +8°C° 0 mm 5 mps 748 mmHg 88%
06:00 +7°C° 0 mm 5 mps 748 mmHg 88%
07:00 +9°C° 0 mm 5 mps 748 mmHg 80%
08:00 +10°C° 0 mm 6 mps 748 mmHg 72%
09:00 +12°C° 0 mm 7 mps 748 mmHg 63%
10:00 +14°C° 0 mm 7 mps 748 mmHg 56%
11:00 +16°C° 0 mm 7 mps 747 mmHg 49%
12:00 +18°C° 0 mm 8 mps 747 mmHg 42%
13:00 +18°C° 0 mm 7 mps 747 mmHg 41%
14:00 +18°C° 0 mm 7 mps 747 mmHg 41%
15:00 +18°C° 0 mm 7 mps 747 mmHg 40%
16:00 +16°C° 0.3 mm 6 mps 747 mmHg 50%
17:00 +14°C° 0.3 mm 5 mps 747 mmHg 60%
18:00 +12°C° 0.3 mm 4 mps 748 mmHg 70%
19:00 +11°C° 0.2 mm 4 mps 748 mmHg 73%
20:00 +11°C° 0.2 mm 3 mps 748 mmHg 77%
21:00 +10°C° 0.2 mm 3 mps 748 mmHg 80%
22:00 +9°C° 0.5 mm 3 mps 748 mmHg 81%
23:00 +9°C° 0.5 mm 3 mps 748 mmHg 83%

18 April, Sunday

Time Temperature Precipitation Wind Pressure Humidity
00:00 +7°C° 0.5 mm 4 mps 748 mmHg 85%
01:00 +8°C° 1.7 mm 3 mps 748 mmHg 86%
02:00 +7°C° 1.7 mm 2 mps 748 mmHg 87%
03:00 +8°C° 1.7 mm 1 mps 748 mmHg 89%
04:00 +8°C° 0.2 mm 1 mps 748 mmHg 89%
05:00 +8°C° 0.2 mm 1 mps 748 mmHg 88%
06:00 +7°C° 0.2 mm 2 mps 748 mmHg 88%
07:00 +8°C° 0.1 mm 1 mps 748 mmHg 87%
08:00 +8°C° 0.1 mm 1 mps 749 mmHg 85%
09:00 +9°C° 0.1 mm 1 mps 749 mmHg 84%
10:00 +8°C° 0.1 mm 2 mps 749 mmHg 79%
11:00 +9°C° 0.1 mm 2 mps 749 mmHg 75%
12:00 +10°C° 0.1 mm 2 mps 749 mmHg 70%
13:00 +10°C° 0.1 mm 3 mps 749 mmHg 68%
14:00 +11°C° 0.1 mm 3 mps 749 mmHg 66%
15:00 +11°C° 0.1 mm 4 mps 749 mmHg 64%
16:00 +9°C° 0 mm 5 mps 749 mmHg 68%
17:00 +8°C° 0 mm 5 mps 749 mmHg 72%
18:00 +7°C° 0 mm 5 mps 749 mmHg 76%
19:00 +7°C° 0 mm 5 mps 749 mmHg 79%
20:00 +6°C° 0 mm 4 mps 750 mmHg 81%
21:00 +6°C° 0 mm 4 mps 750 mmHg 84%
22:00 +5°C° 0 mm 4 mps 750 mmHg 85%
23:00 +5°C° 0 mm 4 mps 749 mmHg 86%

19 April, Monday

Time Temperature Precipitation Wind Pressure Humidity
00:00 +5°C° 0 mm 4 mps 749 mmHg 87%
01:00 +5°C° 0 mm 4 mps 749 mmHg 85%
02:00 +5°C° 0 mm 4 mps 749 mmHg 84%
03:00 +5°C° 0 mm 4 mps 749 mmHg 82%
04:00 +5°C° 0 mm 4 mps 749 mmHg 82%
05:00 +5°C° 0 mm 5 mps 750 mmHg 81%
06:00 +3°C° 0 mm 5 mps 750 mmHg 81%
07:00 +5°C° 0 mm 5 mps 750 mmHg 81%
08:00 +5°C° 0 mm 5 mps 750 mmHg 82%
09:00 +4°C° 0 mm 6 mps 750 mmHg 82%
10:00 +4°C° 0.7 mm 6 mps 750 mmHg 83%
11:00 +4°C° 0.7 mm 7 mps 751 mmHg 84%
12:00 +4°C° 0.7 mm 7 mps 751 mmHg 84%
13:00 +4°C° 0.7 mm 7 mps 751 mmHg 83%
14:00 +4°C° 0.7 mm 6 mps 751 mmHg 82%
15:00 +4°C° 0.7 mm 6 mps 751 mmHg 81%
16:00 +4°C° 0.1 mm 6 mps 751 mmHg 80%
17:00 +5°C° 0.1 mm 5 mps 751 mmHg 79%
18:00 +5°C° 0.1 mm 4 mps 751 mmHg 77%
19:00 +5°C° 0 mm 4 mps 751 mmHg 79%
20:00 +4°C° 0 mm 4 mps 751 mmHg 80%
21:00 +4°C° 0 mm 4 mps 751 mmHg 82%
22:00 +2°C° 0 mm 5 mps 751 mmHg 83%
23:00 +2°C° 0 mm 5 mps 751 mmHg 85%

20 April, Tuesday

Time Temperature Precipitation Wind Pressure Humidity
00:00 +2°C° 0 mm 6 mps 751 mmHg 86%
01:00 +2°C° 0 mm 6 mps 750 mmHg 88%
02:00 +2°C° 0 mm 6 mps 750 mmHg 90%
03:00 +1°C° 0 mm 6 mps 750 mmHg 93%
04:00 +1°C° 0 mm 6 mps 750 mmHg 91%
05:00 0°C° 0 mm 7 mps 750 mmHg 89%
06:00 0°C° 0 mm 7 mps 750 mmHg 87%
07:00 0°C° 0 mm 7 mps 749 mmHg 87%
08:00 0°C° 0 mm 7 mps 749 mmHg 87%
09:00 0°C° 0 mm 8 mps 749 mmHg 86%
10:00 +1°C° 0 mm 8 mps 749 mmHg 81%
11:00 +2°C° 0 mm 8 mps 749 mmHg 76%
12:00 +2°C° 0 mm 9 mps 749 mmHg 71%
13:00 +2°C° 0.1 mm 9 mps 748 mmHg 76%
14:00 +2°C° 0.1 mm 8 mps 748 mmHg 81%
15:00 +2°C° 0.1 mm 8 mps 748 mmHg 87%
16:00 +1°C° 0.2 mm 9 mps 748 mmHg 86%
17:00 +1°C° 0.2 mm 9 mps 747 mmHg 85%
18:00 +1°C° 0.2 mm 9 mps 747 mmHg 84%
19:00 +1°C° 1.3 mm 9 mps 746 mmHg 88%
20:00 0°C° 1.3 mm 10 mps 746 mmHg 92%
21:00 -2°C° 1.3 mm 10 mps 745 mmHg 95%
22:00 -2°C° 2.4 mm 10 mps 745 mmHg 96%
23:00 -3°C° 2.4 mm 9 mps 744 mmHg 97%
Show more